Weather History for KGON - November, 2013

Change the Weather History Date:

Thursday, November 14, 2013

  Actual Average Record
Temperature  
Mean Temperature 44 °F -  
Max Temperature 51 °F 51 °F 67 °F (1993)
Min Temperature 36 °F 35 °F 18 °F (1986)
Degree Days  
Heating Degree Days 22    
Moisture  
Dew Point 26 °F    
Average Humidity 48    
Maximum Humidity 65    
Minimum Humidity 37    
Precipitation  
Precipitation 0.00 in - - ()
Sea Level Pressure  
Sea Level Pressure 30.16 in    
Wind  
Wind Speed 12 mph (West)    
Max Wind Speed 17 mph    
Max Gust Speed 26 mph    
Visibility 10 miles    
Events      
Averages and records for this station are not official NWS values.
T = Trace of Precipitation, MM = Missing Value Source: NWS Daily Summary

Daily Weather History Graph

Daily Weather History Graph

Search for Another Location

Airport or City:

Trip Planner

Search our weather history database for the weather conditions in past years. The results will help you decide how hot, cold, wet, or windy it might be!

Date:

Astronomy

Nov. 14, 2013 Rise Set
Actual Time 6:35 AM EST 4:29 PM EST
Civil Twilight 6:05 AM EST 4:58 PM EST
Nautical Twilight 5:32 AM EST 5:32 PM EST
Astronomical Twilight 4:59 AM EST 6:04 PM EST
Moon 2:50 PM EST (11/14) 3:25 AM EST (11/14)
Length of Visible Light 10h 53m
Length of Day
9h 53m
Waxing Gibbous, 91% of the Moon is Illuminated
Nov 14
Waxing Gibbous
Nov 17
Full
Nov 25
Last Quarter
Dec 2
New
Dec 9
First Quarter

Hourly Weather History & Observations

Time (EST) Temp. Windchill Dew Point Humidity Pressure Visibility Wind Dir Wind Speed Gust Speed Precip Events Conditions
12:56 AM 36.0 °F 28.5 °F 21.0 °F 55% 30.21 in 10.0 mi West 10.4 mph - N/A   Clear
1:56 AM 37.0 °F 29.3 °F 21.0 °F 52% 30.18 in 10.0 mi West 11.5 mph - N/A   Clear
2:56 AM 37.0 °F 31.0 °F 23.0 °F 57% 30.17 in 10.0 mi West 8.1 mph - N/A   Clear
3:56 AM 37.0 °F 31.0 °F 24.1 °F 59% 30.17 in 10.0 mi West 8.1 mph - N/A   Clear
4:56 AM 39.0 °F 32.8 °F 28.0 °F 65% 30.16 in 10.0 mi West 9.2 mph - N/A   Partly Cloudy
5:56 AM 39.0 °F 32.8 °F 27.0 °F 62% 30.15 in 10.0 mi WNW 9.2 mph - N/A   Clear
6:56 AM 39.0 °F 32.3 °F 24.1 °F 55% 30.16 in 9.0 mi West 10.4 mph - N/A   Clear
7:56 AM 39.0 °F 30.3 °F 21.0 °F 49% 30.17 in 10.0 mi West 16.1 mph - N/A   Clear
8:56 AM 41.0 °F 33.1 °F 19.0 °F 41% 30.17 in 10.0 mi West 15.0 mph - N/A   Clear
9:56 AM 44.1 °F 39.0 °F 19.0 °F 37% 30.18 in 10.0 mi West 9.2 mph - N/A   Clear
10:56 AM 46.0 °F 41.0 °F 23.0 °F 40% 30.15 in 10.0 mi WSW 10.4 mph - N/A   Clear
11:56 AM 46.9 °F - 24.1 °F 41% 30.13 in 10.0 mi WSW 13.8 mph - N/A   Clear
12:56 PM 48.0 °F - 26.1 °F 42% 30.12 in 10.0 mi WSW 17.3 mph 25.3 mph N/A   Clear
1:56 PM 48.9 °F - 27.0 °F 43% 30.11 in 9.0 mi WSW 15.0 mph 23.0 mph N/A   Clear
2:56 PM 48.9 °F - 28.9 °F 46% 30.12 in 9.0 mi WSW 17.3 mph 26.5 mph N/A   Clear
3:56 PM 48.9 °F - 28.0 °F 44% 30.12 in 9.0 mi West 15.0 mph 21.9 mph N/A   Clear
4:56 PM 50.0 °F - 28.9 °F 44% 30.13 in 10.0 mi West 16.1 mph 19.6 mph N/A   Clear
5:56 PM 48.9 °F - 30.9 °F 50% 30.14 in 10.0 mi SW 13.8 mph - N/A   Clear
6:56 PM 50.0 °F - 33.1 °F 52% 30.15 in 10.0 mi WSW 15.0 mph 21.9 mph N/A   Clear
7:56 PM 51.1 °F - 28.9 °F 43% 30.16 in 10.0 mi WSW 17.3 mph 23.0 mph N/A   Clear
8:56 PM 51.1 °F - 30.0 °F 44% 30.17 in 10.0 mi West 13.8 mph 20.7 mph N/A   Clear
9:56 PM 50.0 °F - 30.0 °F 46% 30.17 in 10.0 mi WSW 10.4 mph - N/A   Clear
10:56 PM 50.0 °F - 30.0 °F 46% 30.17 in 10.0 mi WSW 10.4 mph - N/A   Clear
11:56 PM 48.9 °F - 30.9 °F 50% 30.17 in 10.0 mi West 8.1 mph - N/A   Clear